Location: Clanezzo
(45.7500°N, 9.6000°E)
Time: 01:09:11
(UTC+00:00)

Meteor 1-5 Rocket - Pass Details

Date: 12 May 2021
Orbit: 789 x 915 km, 81.2° (Epoch: 23 June)

Event Time Altitude Azimuth Distance (km) Brightness Sun altitude
Rises 20:46:17 0° 346° (NNW) 3,344 8.6 -17.3°
Reaches altitude 10° 20:48:43 10° 343° (NNW) 2,394 7.6 -17.5°
Maximum altitude 20:54:02 64° 264° (W) 879 4.4 -18.1°
Enters shadow 20:57:20 23° 188° (S) 1,639 5.3 -18.4°
